Weather History for Decorah, IA

Change the Weather History Date:

Tuesday, April 9, 2013

  Actual Average Record
Temperature  
Mean Temperature 40 °F -  
Max Temperature 44 °F 54 °F 77 °F (1987)
Min Temperature 37 °F 33 °F 19 °F (1989)
Degree Days  
Heating Degree Days 24    
Moisture  
Dew Point 39 °F    
Average Humidity 95    
Maximum Humidity 100    
Minimum Humidity 76    
Precipitation  
Precipitation 1.51 in - - ()
Sea Level Pressure  
Sea Level Pressure 29.90 in    
Wind  
Wind Speed 11 mph (NE)    
Max Wind Speed 23 mph    
Max Gust Speed 44 mph    
Visibility 6 miles    
Events Rain    
Averages and records for this station are not official NWS values.
T = Trace of Precipitation, MM = Missing Value Source: NWS Daily Summary

Daily Weather History Graph

Daily Weather History Graph

Search for Another Location

Airport:

Trip Planner

Search our weather history database for the weather conditions in past years. The results will help you decide how hot, cold, wet, or windy it might be!

Date:

Astronomy

Apr. 09, 2013 Rise Set
Actual Time 6:34 AM CDT 7:43 PM CDT
Civil Twilight 6:05 AM CDT 8:12 PM CDT
Nautical Twilight 5:30 AM CDT 8:47 PM CDT
Astronomical Twilight 4:53 AM CDT 9:24 PM CDT
Moon 5:58 AM CDT (4/9) 7:19 PM CDT (4/9)
Length of Visible Light 14h 07m
Length of Day
13h 08m
Waning Crescent, 1% of the Moon is Illuminated
Apr 9
Waning Crescent
Apr 10
New
Apr 18
First Quarter
Apr 25
Full
May 2
Last Quarter

Hourly Weather History & Observations

Time (CDT) Temp. Windchill Dew Point Humidity Pressure Visibility Wind Dir Wind Speed Gust Speed Precip Events Conditions
12:15 AM 44.6 °F 40.2 °F 41.0 °F 87% 29.94 in 10.0 mi NE 8.1 mph - N/A   Overcast
12:35 AM 44.6 °F 39.2 °F 39.2 °F 81% 29.94 in 10.0 mi NE 10.4 mph - N/A   Overcast
12:55 AM 44.6 °F 39.2 °F 37.4 °F 76% 29.94 in 10.0 mi ENE 10.4 mph 20.7 mph N/A   Light Drizzle
1:15 AM 42.8 °F 36.2 °F 37.4 °F 81% 29.92 in 10.0 mi ENE 12.7 mph - N/A   Light Drizzle
1:35 AM 42.8 °F 36.6 °F 37.4 °F 81% 29.90 in 9.0 mi ENE 11.5 mph 18.4 mph N/A   Mostly Cloudy
1:55 AM 41.0 °F 36.4 °F 37.4 °F 87% 29.91 in 8.0 mi Variable 6.9 mph 16.1 mph N/A   Scattered Clouds
2:15 AM 41.0 °F 34.7 °F 37.4 °F 87% 29.91 in 8.0 mi ENE 10.4 mph - N/A   Scattered Clouds
2:35 AM 41.0 °F 35.8 °F 37.4 °F 87% 29.93 in 7.0 mi ENE 8.1 mph - N/A   Overcast
2:55 AM 41.0 °F 35.8 °F 37.4 °F 87% 29.91 in 7.0 mi NE 8.1 mph 15.0 mph N/A   Mostly Cloudy
3:15 AM 41.0 °F 34.7 °F 37.4 °F 87% 29.90 in 7.0 mi ENE 10.4 mph - N/A   Scattered Clouds
3:35 AM 39.2 °F 35.0 °F 37.4 °F 93% 29.90 in 6.0 mi Variable 5.8 mph 13.8 mph N/A   Scattered Clouds
3:55 AM 39.2 °F 32.5 °F 37.4 °F 93% 29.91 in 6.0 mi NE 10.4 mph 17.3 mph N/A   Mostly Cloudy
4:15 AM 39.2 °F 33.6 °F 37.4 °F 93% 29.91 in 6.0 mi NE 8.1 mph 16.1 mph N/A   Overcast
4:35 AM 39.2 °F 33.6 °F 37.4 °F 93% 29.89 in 5.0 mi ENE 8.1 mph 15.0 mph N/A   Overcast
4:55 AM 39.2 °F 31.2 °F 37.4 °F 93% 29.89 in 5.0 mi ENE 13.8 mph - N/A   Light Drizzle
5:15 AM - - - N/A% - 5.0 mi North - - N/A Rain Light Rain
5:35 AM 39.2 °F 33.6 °F 37.4 °F 93% 29.91 in 3.0 mi NNE 8.1 mph - N/A Rain Rain
5:55 AM 39.2 °F 33.0 °F 39.2 °F 100% 29.90 in 3.0 mi ENE 9.2 mph - 0.08 in Rain Heavy Rain
6:15 AM 39.2 °F 29.0 °F 39.2 °F 100% 29.83 in 2.5 mi ENE 21.9 mph 29.9 mph N/A Rain Heavy Rain
6:35 AM 39.2 °F 35.0 °F 39.2 °F 100% 29.91 in - East 5.8 mph 19.6 mph N/A Rain Heavy Rain
6:55 AM 39.2 °F 33.6 °F 39.2 °F 100% 29.91 in 3.0 mi ENE 8.1 mph - 0.09 in Rain Light Rain
7:15 AM 39.2 °F 31.6 °F 39.2 °F 100% 29.88 in 3.0 mi ENE 12.7 mph - N/A Rain Light Rain
7:35 AM 39.2 °F 31.2 °F 39.2 °F 100% 29.87 in 4.0 mi ENE 13.8 mph 20.7 mph N/A   Light Drizzle
7:55 AM 41.0 °F 35.2 °F 39.2 °F 93% 29.89 in 2.5 mi ENE 9.2 mph - 0.02 in Rain Light Rain
8:15 AM 41.0 °F 34.7 °F 39.2 °F 93% 29.87 in 2.5 mi ENE 10.4 mph 17.3 mph N/A Rain Light Rain
8:35 AM 41.0 °F 33.5 °F 39.2 °F 93% 29.85 in 4.0 mi ENE 13.8 mph 19.6 mph N/A   Light Drizzle
8:55 AM 41.0 °F 32.5 °F 41.0 °F 100% 29.83 in 5.0 mi East 17.3 mph 25.3 mph 0.03 in   Overcast
9:15 AM 41.0 °F 31.6 °F 41.0 °F 100% 29.81 in 5.0 mi ENE 20.7 mph - N/A   Overcast
9:35 AM 41.0 °F 33.5 °F 41.0 °F 100% 29.85 in - ENE 13.8 mph 23.0 mph N/A   Unknown
9:55 AM 41.0 °F - 39.2 °F 93% 29.84 in 2.5 mi North - - 0.04 in Rain Rain
10:15 AM 39.2 °F - 39.2 °F 100% - 1.8 mi North - - N/A Rain Heavy Rain
10:35 AM - - - N/A% - - North - - N/A   Unknown
10:55 AM 39.2 °F 30.8 °F 39.2 °F 100% 29.87 in 3.0 mi NNE 15.0 mph 21.9 mph 0.25 in Rain Light Rain
11:15 AM 37.4 °F 27.8 °F 37.4 °F 100% 29.91 in 9.0 mi North 17.3 mph 25.3 mph N/A   Overcast
11:35 AM 37.4 °F 27.2 °F 37.4 °F 100% 29.84 in 1.5 mi NE 19.6 mph 26.5 mph N/A Rain Heavy Rain
11:55 AM 37.4 °F 26.4 °F 37.4 °F 100% 29.81 in 2.0 mi East 23.0 mph 33.4 mph 0.14 in   Mostly Cloudy
12:15 PM 37.4 °F 29.8 °F 37.4 °F 100% 29.84 in 9.0 mi ENE 11.5 mph 21.9 mph N/A Rain Light Rain
12:35 PM 39.2 °F 33.6 °F 37.4 °F 93% 29.87 in 2.5 mi NE 8.1 mph - N/A Rain Light Rain
12:55 PM 39.2 °F 33.0 °F 37.4 °F 93% 29.89 in 1.5 mi NNE 9.2 mph - 0.06 in Rain Light Rain
1:15 PM 39.2 °F 33.6 °F 39.2 °F 100% 29.88 in 1.0 mi NNE 8.1 mph 16.1 mph N/A Rain Light Rain
1:35 PM 39.2 °F 32.5 °F 39.2 °F 100% 29.89 in 2.0 mi NE 10.4 mph 19.6 mph N/A Rain Light Rain
1:55 PM 39.2 °F 33.0 °F 39.2 °F 100% 29.90 in 2.0 mi NNE 9.2 mph 16.1 mph 0.03 in Rain Rain
2:15 PM 39.2 °F 33.0 °F 39.2 °F 100% 29.90 in 3.0 mi NNE 9.2 mph 16.1 mph N/A Rain Light Rain
2:35 PM 39.2 °F 32.0 °F 39.2 °F 100% 29.90 in 4.0 mi NNE 11.5 mph 19.6 mph N/A Rain Light Rain
2:55 PM 39.2 °F 32.5 °F 39.2 °F 100% 29.91 in 5.0 mi NE 10.4 mph 20.7 mph 0.01 in Rain Light Rain
3:15 PM 39.2 °F 31.6 °F 39.2 °F 100% 29.91 in 9.0 mi NE 12.7 mph - N/A Rain Light Rain
3:35 PM 39.2 °F 31.6 °F 39.2 °F 100% 29.91 in 10.0 mi NE 12.7 mph 21.9 mph N/A Rain Light Rain
3:55 PM 39.2 °F 30.8 °F 39.2 °F 100% 29.91 in 10.0 mi ENE 15.0 mph 21.9 mph N/A   Overcast
4:15 PM 41.0 °F 34.7 °F 39.2 °F 93% 29.92 in 10.0 mi ENE 10.4 mph 21.9 mph N/A   Overcast
4:35 PM 41.0 °F 34.3 °F 39.2 °F 93% 29.91 in 10.0 mi ENE 11.5 mph 21.9 mph N/A   Overcast
4:55 PM 41.0 °F 34.3 °F 39.2 °F 93% 29.92 in 10.0 mi ENE 11.5 mph 19.6 mph N/A   Overcast
5:15 PM 41.0 °F 33.1 °F 39.2 °F 93% 29.93 in 10.0 mi ENE 15.0 mph 20.7 mph N/A Rain Light Rain
5:35 PM 41.0 °F 33.1 °F 39.2 °F 93% 29.93 in 10.0 mi NE 15.0 mph 23.0 mph N/A Rain Light Rain
5:55 PM 41.0 °F 32.8 °F 39.2 °F 93% 29.94 in 10.0 mi ENE 16.1 mph 25.3 mph N/A Rain Light Rain
6:15 PM 41.0 °F 32.8 °F 39.2 °F 93% 29.93 in 10.0 mi ENE 16.1 mph 24.2 mph N/A Rain Light Rain
6:35 PM 41.0 °F 33.5 °F 39.2 °F 93% 29.94 in 9.0 mi ENE 13.8 mph 24.2 mph N/A Rain Light Rain
6:55 PM 39.2 °F 30.8 °F 39.2 °F 100% 29.94 in 4.0 mi NE 15.0 mph 23.0 mph N/A Rain Light Rain
7:15 PM 39.2 °F 30.8 °F 39.2 °F 100% 29.94 in 3.0 mi NE 15.0 mph 21.9 mph N/A Rain Light Rain
7:35 PM 39.2 °F 31.2 °F 39.2 °F 100% 29.93 in 2.5 mi NE 13.8 mph 19.6 mph N/A Rain Rain
7:55 PM 39.2 °F 28.7 °F 39.2 °F 100% 29.89 in 4.0 mi ENE 23.0 mph 31.1 mph 0.03 in   Overcast
8:15 PM 39.2 °F 29.0 °F 39.2 °F 100% 29.90 in 10.0 mi ENE 21.9 mph 28.8 mph N/A   Overcast
8:35 PM 39.2 °F 30.2 °F 39.2 °F 100% 29.93 in 10.0 mi ENE 17.3 mph 24.2 mph N/A   Overcast
8:55 PM - - - N/A% - - North - - N/A   Unknown
9:55 PM 39.2 °F 31.6 °F 37.4 °F 93% 29.94 in 4.0 mi NE 12.7 mph 43.7 mph 0.04 in   Mist
10:15 PM - - - N/A% 29.95 in 3.0 mi ENE 15.0 mph 27.6 mph N/A Rain Rain
10:35 PM 39.2 °F 32.0 °F 37.4 °F 93% 29.95 in 6.0 mi NE 11.5 mph 17.3 mph N/A Rain Light Rain
10:55 PM - - - N/A% 30.02 in 1.8 mi NNW 4.6 mph 23.0 mph 0.36 in Rain Heavy Rain
11:15 PM - - - N/A% - - North - - N/A   Unknown
11:35 PM 37.4 °F 27.8 °F 37.4 °F 100% 29.95 in 3.0 mi ENE 17.3 mph - N/A Rain Rain
11:55 PM - - - N/A% - 8.0 mi North - - 0.33 in Rain Light Rain